Time,TemperatureF,DewpointF,PressureIn,WindDirection,WindDirectionDegrees,WindSpeedMPH,WindSpeedGustMPH,Humidity,HourlyPrecipIn,Conditions,Clouds,dailyrainin,SoftwareType,DateUTC
2013-02-11 00:00:00,55.8,54.7,29.90,SE,133,3.0,3.0,96,0.00,,---,0.52,VWS V14.01,2013-02-11 06:00:00,
2013-02-11 00:05:00,55.9,54.8,29.90,ESE,123,3.0,3.0,96,0.00,,---,0.00,VWS V14.01,2013-02-11 06:05:00,
2013-02-11 00:10:00,56.0,54.9,29.90,ESE,110,1.0,1.0,96,0.00,,---,0.00,VWS V14.01,2013-02-11 06:10:00,
2013-02-11 00:14:00,56.1,55.0,29.90,ESE,105,1.0,2.0,96,0.00,,---,0.00,VWS V14.01,2013-02-11 06:14:00,
2013-02-11 00:19:00,56.2,55.1,29.91,SSE,153,3.0,4.0,96,0.00,,---,0.00,VWS V14.01,2013-02-11 06:19:00,
2013-02-11 00:24:00,56.3,55.2,29.90,SSE,147,3.0,3.0,96,0.00,,---,0.00,VWS V14.01,2013-02-11 06:24:00,
2013-02-11 00:30:00,56.4,55.3,29.91,SSE,158,2.0,3.0,96,0.00,,---,0.00,VWS V14.01,2013-02-11 06:30:00,
2013-02-11 00:35:00,56.5,55.4,29.91,SSE,156,1.0,3.0,96,0.00,,---,0.00,VWS V14.01,2013-02-11 06:35:00,
2013-02-11 00:40:00,56.6,55.5,29.91,SE,145,6.0,6.0,96,0.00,,---,0.00,VWS V14.01,2013-02-11 06:40:00,
2013-02-11 00:45:00,56.7,55.6,29.91,East,99,3.0,5.0,96,0.00,,---,0.00,VWS V14.01,2013-02-11 06:45:00,
2013-02-11 00:49:00,56.7,55.3,29.91,ESE,122,4.0,5.0,95,0.00,,---,0.00,VWS V14.01,2013-02-11 06:49:00,
2013-02-11 00:54:00,56.8,55.4,29.91,SSE,165,6.0,6.0,95,0.00,,---,0.00,VWS V14.01,2013-02-11 06:54:00,
2013-02-11 00:59:00,56.8,55.4,29.91,SE,127,5.0,5.0,95,0.00,,---,0.00,VWS V14.01,2013-02-11 06:59:00,
2013-02-11 01:04:00,56.9,55.5,29.91,South,169,5.0,6.0,95,0.00,,---,0.00,VWS V14.01,2013-02-11 07:04:00,
2013-02-11 01:09:00,56.9,55.5,29.91,SSE,158,2.0,4.0,95,0.00,,---,0.00,VWS V14.01,2013-02-11 07:09:00,
2013-02-11 01:14:00,57.1,55.7,29.91,SSE,168,4.0,4.0,95,0.00,,---,0.00,VWS V14.01,2013-02-11 07:14:00,
2013-02-11 01:19:00,57.1,55.7,29.91,ESE,117,2.0,2.0,95,0.00,,---,0.00,VWS V14.01,2013-02-11 07:19:00,
2013-02-11 01:24:00,57.0,55.6,29.91,SSE,155,3.0,4.0,95,0.00,,---,0.00,VWS V14.01,2013-02-11 07:24:00,
2013-02-11 01:29:00,57.1,55.7,29.91,SE,126,3.0,3.0,95,0.00,,---,0.00,VWS V14.01,2013-02-11 07:29:00,
2013-02-11 01:34:00,57.0,55.6,29.91,SE,131,2.0,3.0,95,0.00,,---,0.00,VWS V14.01,2013-02-11 07:34:00,
2013-02-11 01:39:00,57.0,55.6,29.91,SE,130,2.0,2.0,95,0.00,,---,0.00,VWS V14.01,2013-02-11 07:39:00,
2013-02-11 01:44:00,57.0,55.6,29.91,ESE,116,2.0,2.0,95,0.00,,---,0.00,VWS V14.01,2013-02-11 07:44:00,
2013-02-11 01:49:00,57.0,55.6,29.92,ESE,119,2.0,2.0,95,0.00,,---,0.00,VWS V14.01,2013-02-11 07:49:00,
2013-02-11 01:54:00,57.0,55.6,29.92,East,86,0.0,3.0,95,0.00,,---,0.00,VWS V14.01,2013-02-11 07:54:00,
2013-02-11 01:59:00,57.1,55.7,29.92,SSE,148,5.0,5.0,95,0.00,,---,0.00,VWS V14.01,2013-02-11 07:59:00,
2013-02-11 02:04:00,57.1,55.7,29.92,SSE,154,6.0,6.0,95,0.00,,---,0.00,VWS V14.01,2013-02-11 08:04:00,
2013-02-11 02:09:00,57.1,55.7,29.92,ESE,116,3.0,3.0,95,0.00,,---,0.00,VWS V14.01,2013-02-11 08:09:00,
2013-02-11 02:14:00,57.1,55.7,29.92,ESE,119,1.0,1.0,95,0.00,,---,0.00,VWS V14.01,2013-02-11 08:14:00,
2013-02-11 02:19:00,57.1,55.7,29.92,SE,129,1.0,1.0,95,0.00,,---,0.00,VWS V14.01,2013-02-11 08:19:00,
2013-02-11 02:24:00,57.0,55.6,29.92,SSE,165,4.0,4.0,95,0.00,,---,0.00,VWS V14.01,2013-02-11 08:24:00,
2013-02-11 02:29:00,57.0,55.6,29.92,SSE,153,2.0,4.0,95,0.00,,---,0.00,VWS V14.01,2013-02-11 08:29:00,
2013-02-11 02:34:00,57.1,55.7,29.93,SSE,148,3.0,5.0,95,0.00,,---,0.00,VWS V14.01,2013-02-11 08:34:00,
2013-02-11 02:39:00,57.1,55.7,29.92,SE,141,2.0,3.0,95,0.00,,---,0.00,VWS V14.01,2013-02-11 08:39:00,
2013-02-11 02:44:00,57.1,55.7,29.93,SSE,155,2.0,3.0,95,0.00,,---,0.00,VWS V14.01,2013-02-11 08:44:00,
2013-02-11 02:49:00,57.0,55.6,29.93,SSE,167,2.0,3.0,95,0.00,,---,0.00,VWS V14.01,2013-02-11 08:49:00,
2013-02-11 02:54:00,57.1,55.4,29.93,South,182,11.0,11.0,94,0.00,,---,0.00,VWS V14.01,2013-02-11 08:54:00,
2013-02-11 02:59:00,57.4,55.4,29.94,ESE,112,2.0,6.0,93,0.00,,---,0.00,VWS V14.01,2013-02-11 08:59:00,
2013-02-11 03:04:00,57.5,55.2,29.94,South,182,5.0,8.0,92,0.00,,---,0.00,VWS V14.01,2013-02-11 09:04:00,
2013-02-11 03:09:00,57.6,55.3,29.93,SSW,207,2.0,3.0,92,0.00,,---,0.00,VWS V14.01,2013-02-11 09:09:00,
2013-02-11 03:14:00,57.5,54.9,29.93,SSW,200,5.0,9.0,91,0.00,,---,0.00,VWS V14.01,2013-02-11 09:14:00,
2013-02-11 03:19:00,57.4,54.8,29.93,SSE,148,5.0,5.0,91,0.00,,---,0.00,VWS V14.01,2013-02-11 09:19:00,
2013-02-11 03:24:00,57.4,54.2,29.93,South,178,6.0,11.0,89,0.00,,---,0.00,VWS V14.01,2013-02-11 09:24:00,
2013-02-11 03:29:00,57.3,53.8,29.94,South,175,4.0,6.0,88,0.00,,---,0.00,VWS V14.01,2013-02-11 09:29:00,
2013-02-11 03:34:00,57.2,53.7,29.94,SSW,213,3.0,10.0,88,0.00,,---,0.00,VWS V14.01,2013-02-11 09:34:00,
2013-02-11 03:39:00,57.1,53.6,29.94,SSE,157,2.0,4.0,88,0.00,,---,0.00,VWS V14.01,2013-02-11 09:39:00,
2013-02-11 03:44:00,56.9,53.4,29.94,SSE,147,2.0,2.0,88,0.00,,---,0.00,VWS V14.01,2013-02-11 09:44:00,
2013-02-11 03:49:00,56.7,53.2,29.94,SW,217,4.0,4.0,88,0.00,,---,0.00,VWS V14.01,2013-02-11 09:49:00,
2013-02-11 03:54:00,56.6,53.1,29.94,South,174,2.0,5.0,88,0.00,,---,0.00,VWS V14.01,2013-02-11 09:54:00,
2013-02-11 03:59:00,56.4,52.9,29.95,SW,216,4.0,4.0,88,0.00,,---,0.00,VWS V14.01,2013-02-11 09:59:00,
2013-02-11 04:04:00,56.2,52.7,29.95,SSW,199,6.0,6.0,88,0.00,,---,0.00,VWS V14.01,2013-02-11 10:04:00,
2013-02-11 04:09:00,56.0,51.9,29.95,SSW,193,1.0,7.0,86,0.00,,---,0.00,VWS V14.01,2013-02-11 10:09:00,
2013-02-11 04:14:00,55.9,51.1,29.95,SSW,202,4.0,5.0,84,0.00,,---,0.00,VWS V14.01,2013-02-11 10:14:00,
2013-02-11 04:19:00,55.9,50.8,29.96,SSW,206,7.0,7.0,83,0.00,,---,0.00,VWS V14.01,2013-02-11 10:19:00,
2013-02-11 04:24:00,55.9,50.5,29.96,South,174,2.0,3.0,82,0.00,,---,0.00,VWS V14.01,2013-02-11 10:24:00,
2013-02-11 04:29:00,55.6,50.5,29.96,SW,220,3.0,3.0,83,0.00,,---,0.00,VWS V14.01,2013-02-11 10:29:00,
2013-02-11 04:34:00,55.3,50.2,29.95,SSE,157,2.0,2.0,83,0.00,,---,0.00,VWS V14.01,2013-02-11 10:34:00,
2013-02-11 04:39:00,55.1,50.0,29.95,SSW,200,3.0,5.0,83,0.00,,---,0.00,VWS V14.01,2013-02-11 10:39:00,
2013-02-11 04:44:00,55.1,49.7,29.95,South,179,2.0,2.0,82,0.00,,---,0.00,VWS V14.01,2013-02-11 10:44:00,
2013-02-11 04:49:00,55.0,49.3,29.96,South,178,4.0,4.0,81,0.00,,---,0.00,VWS V14.01,2013-02-11 10:49:00,
2013-02-11 04:54:00,54.7,49.0,29.96,South,171,2.0,3.0,81,0.00,,---,0.00,VWS V14.01,2013-02-11 10:54:00,
2013-02-11 04:59:00,54.8,49.1,29.96,SSE,154,2.0,2.0,81,0.00,,---,0.00,VWS V14.01,2013-02-11 10:59:00,
2013-02-11 05:04:00,54.6,48.9,29.96,SSE,161,3.0,3.0,81,0.00,,---,0.00,VWS V14.01,2013-02-11 11:04:00,
2013-02-11 05:09:00,54.4,48.4,29.97,SSE,154,2.0,3.0,80,0.00,,---,0.00,VWS V14.01,2013-02-11 11:09:00,
2013-02-11 05:14:00,54.3,48.3,29.97,South,176,4.0,4.0,80,0.00,,---,0.00,VWS V14.01,2013-02-11 11:14:00,
2013-02-11 05:19:00,54.1,47.7,29.97,SSE,155,1.0,2.0,79,0.00,,---,0.00,VWS V14.01,2013-02-11 11:19:00,
2013-02-11 05:24:00,53.9,47.5,29.98,SSE,159,3.0,5.0,79,0.00,,---,0.00,VWS V14.01,2013-02-11 11:24:00,
2013-02-11 05:29:00,53.7,47.7,29.98,SSE,151,1.0,2.0,80,0.00,,---,0.00,VWS V14.01,2013-02-11 11:29:00,
2013-02-11 05:34:00,53.5,47.5,29.98,SSE,167,4.0,5.0,80,0.00,,---,0.00,VWS V14.01,2013-02-11 11:34:00,
2013-02-11 05:39:00,53.6,47.6,29.98,SSE,155,3.0,4.0,80,0.00,,---,0.00,VWS V14.01,2013-02-11 11:39:00,
2013-02-11 05:44:00,53.5,47.5,29.97,SSE,166,2.0,3.0,80,0.00,,---,0.00,VWS V14.01,2013-02-11 11:44:00,
2013-02-11 05:49:00,53.2,47.2,29.97,ESE,122,1.0,2.0,80,0.00,,---,0.00,VWS V14.01,2013-02-11 11:49:00,
2013-02-11 05:54:00,52.9,46.9,29.98,SSE,152,4.0,6.0,80,0.00,,---,0.00,VWS V14.01,2013-02-11 11:54:00,
2013-02-11 05:59:00,52.8,46.8,29.98,South,176,4.0,5.0,80,0.00,,---,0.00,VWS V14.01,2013-02-11 11:59:00,
2013-02-11 06:04:00,52.5,46.5,29.99,SE,134,2.0,3.0,80,0.00,,---,0.00,VWS V14.01,2013-02-11 12:04:00,
2013-02-11 06:09:00,52.1,46.1,29.99,South,169,5.0,6.0,80,0.00,,---,0.00,VWS V14.01,2013-02-11 12:09:00,
2013-02-11 06:14:00,52.0,46.0,29.99,South,178,4.0,4.0,80,0.00,,---,0.00,VWS V14.01,2013-02-11 12:14:00,
2013-02-11 06:19:00,51.8,45.8,29.99,South,171,2.0,4.0,80,0.00,,---,0.00,VWS V14.01,2013-02-11 12:19:00,
2013-02-11 06:24:00,52.0,45.7,29.99,SSW,197,5.0,10.0,79,0.00,,---,0.00,VWS V14.01,2013-02-11 12:24:00,
2013-02-11 06:29:00,52.3,44.6,30.00,South,171,12.0,12.0,75,0.00,,---,0.00,VWS V14.01,2013-02-11 12:29:00,
2013-02-11 06:34:00,52.4,44.4,29.99,SSW,200,4.0,7.0,74,0.00,,---,0.00,VWS V14.01,2013-02-11 12:34:00,
2013-02-11 06:39:00,52.6,43.5,30.00,South,183,5.0,8.0,71,0.00,,---,0.00,VWS V14.01,2013-02-11 12:39:00,
2013-02-11 06:44:00,52.6,42.3,30.00,WSW,242,5.0,13.0,68,0.00,,---,0.00,VWS V14.01,2013-02-11 12:44:00,
2013-02-11 06:49:00,52.6,42.7,30.01,SSW,202,5.0,5.0,69,0.00,,---,0.00,VWS V14.01,2013-02-11 12:49:00,
2013-02-11 06:54:00,52.5,42.6,30.02,South,175,3.0,6.0,69,0.00,,---,0.00,VWS V14.01,2013-02-11 12:54:00,
2013-02-11 06:59:00,52.5,42.6,30.02,SSW,209,5.0,7.0,69,0.00,,---,0.00,VWS V14.01,2013-02-11 12:59:00,
2013-02-11 07:04:00,52.4,42.5,30.02,South,175,6.0,7.0,69,0.00,,---,0.00,VWS V14.01,2013-02-11 13:04:00,
2013-02-11 07:09:00,52.3,41.3,30.03,SSW,207,4.0,4.0,66,0.00,,---,0.00,VWS V14.01,2013-02-11 13:09:00,
2013-02-11 07:14:00,52.2,40.8,30.03,SSE,155,2.0,3.0,65,0.00,,---,0.00,VWS V14.01,2013-02-11 13:14:00,
2013-02-11 07:19:00,52.0,40.2,30.03,WSW,245,7.0,7.0,64,0.00,,---,0.00,VWS V14.01,2013-02-11 13:19:00,
2013-02-11 07:24:00,51.8,39.2,30.03,SSW,207,9.0,9.0,62,0.00,,---,0.00,VWS V14.01,2013-02-11 13:24:00,
2013-02-11 07:29:00,51.8,38.4,30.03,SW,219,5.0,6.0,60,0.00,,---,0.00,VWS V14.01,2013-02-11 13:29:00,
2013-02-11 07:34:00,51.7,37.8,30.03,South,188,7.0,11.0,59,0.00,,---,0.00,VWS V14.01,2013-02-11 13:34:00,
2013-02-11 07:39:00,51.6,37.3,30.03,SSE,162,3.0,5.0,58,0.00,,---,0.00,VWS V14.01,2013-02-11 13:39:00,
2013-02-11 07:44:00,51.3,37.5,30.03,South,189,3.0,3.0,59,0.00,,---,0.00,VWS V14.01,2013-02-11 13:44:00,
2013-02-11 07:48:00,51.1,37.3,30.04,SW,226,5.0,9.0,59,0.00,,---,0.00,VWS V14.01,2013-02-11 13:48:00,
2013-02-11 07:53:00,51.1,36.4,30.04,South,177,6.0,8.0,57,0.00,,---,0.00,VWS V14.01,2013-02-11 13:53:00,
2013-02-11 07:58:00,51.1,36.4,30.04,South,189,8.0,10.0,57,0.00,,---,0.00,VWS V14.01,2013-02-11 13:58:00,
2013-02-11 08:03:00,51.0,35.9,30.05,SW,219,7.0,9.0,56,0.00,,---,0.00,VWS V14.01,2013-02-11 14:03:00,
2013-02-11 08:08:00,50.8,36.1,30.05,WSW,251,6.0,6.0,57,0.00,,---,0.00,VWS V14.01,2013-02-11 14:08:00,
2013-02-11 08:13:00,50.7,35.6,30.05,SW,236,7.0,7.0,56,0.00,,---,0.00,VWS V14.01,2013-02-11 14:13:00,
2013-02-11 08:18:00,50.5,35.8,30.05,South,189,5.0,6.0,57,0.00,,---,0.00,VWS V14.01,2013-02-11 14:18:00,
2013-02-11 08:23:00,50.4,35.8,30.05,South,175,6.0,6.0,57,0.00,,---,0.00,VWS V14.01,2013-02-11 14:23:00,
2013-02-11 08:28:00,50.3,35.7,30.06,SSW,197,10.0,10.0,57,0.00,,---,0.00,VWS V14.01,2013-02-11 14:28:00,
2013-02-11 08:33:00,50.3,35.7,30.06,SSW,197,5.0,7.0,57,0.00,,---,0.00,VWS V14.01,2013-02-11 14:33:00,
2013-02-11 08:38:00,50.2,36.4,30.06,WSW,245,5.0,6.0,59,0.00,,---,0.00,VWS V14.01,2013-02-11 14:38:00,
2013-02-11 08:43:00,50.1,35.0,30.06,SW,217,6.0,7.0,56,0.00,,---,0.00,VWS V14.01,2013-02-11 14:43:00,
2013-02-11 08:48:00,50.2,35.1,30.07,SW,224,3.0,5.0,56,0.00,,---,0.00,VWS V14.01,2013-02-11 14:48:00,
2013-02-11 08:53:00,50.3,34.8,30.07,South,185,5.0,5.0,55,0.00,,---,0.00,VWS V14.01,2013-02-11 14:53:00,
2013-02-11 08:58:00,50.5,35.4,30.07,SW,223,4.0,5.0,56,0.00,,---,0.00,VWS V14.01,2013-02-11 14:58:00,
2013-02-11 09:03:00,50.6,35.5,30.08,WSW,239,2.0,3.0,56,0.00,,---,0.00,VWS V14.01,2013-02-11 15:03:00,
2013-02-11 09:08:00,50.6,35.5,30.09,SSE,157,4.0,5.0,56,0.00,,---,0.00,VWS V14.01,2013-02-11 15:08:00,
2013-02-11 09:13:00,50.6,35.5,30.10,South,188,3.0,3.0,56,0.00,,---,0.00,VWS V14.01,2013-02-11 15:13:00,
2013-02-11 09:18:00,50.6,36.4,30.10,SE,124,4.0,7.0,58,0.00,,---,0.00,VWS V14.01,2013-02-11 15:18:00,
2013-02-11 09:23:00,50.5,35.8,30.10,South,175,3.0,6.0,57,0.00,,---,0.00,VWS V14.01,2013-02-11 15:23:00,
2013-02-11 09:28:00,50.5,36.3,30.11,SSW,196,11.0,11.0,58,0.00,,---,0.00,VWS V14.01,2013-02-11 15:28:00,
2013-02-11 09:33:00,50.3,34.3,30.10,SSW,200,8.0,10.0,54,0.00,,---,0.00,VWS V14.01,2013-02-11 15:33:00,
2013-02-11 09:38:00,50.3,33.8,30.10,South,181,6.0,8.0,53,0.00,,---,0.00,VWS V14.01,2013-02-11 15:38:00,
2013-02-11 09:43:00,50.3,34.8,30.09,SSW,193,4.0,7.0,55,0.00,,---,0.00,VWS V14.01,2013-02-11 15:43:00,
2013-02-11 09:48:00,50.2,35.1,30.10,SSE,166,4.0,5.0,56,0.00,,---,0.00,VWS V14.01,2013-02-11 15:48:00,
2013-02-11 09:53:00,50.2,35.1,30.10,South,185,6.0,9.0,56,0.00,,---,0.00,VWS V14.01,2013-02-11 15:53:00,
2013-02-11 09:58:00,50.1,34.6,30.10,SSW,212,3.0,10.0,55,0.00,,---,0.00,VWS V14.01,2013-02-11 15:58:00,
2013-02-11 10:03:00,50.1,35.5,30.10,South,185,3.0,5.0,57,0.00,,---,0.00,VWS V14.01,2013-02-11 16:03:00,
2013-02-11 10:08:00,50.0,34.5,30.10,South,182,4.0,12.0,55,0.00,,---,0.00,VWS V14.01,2013-02-11 16:08:00,
2013-02-11 10:13:00,50.0,34.5,30.10,SSW,192,8.0,10.0,55,0.00,,---,0.00,VWS V14.01,2013-02-11 16:13:00,
2013-02-11 10:18:00,50.0,34.5,30.10,SSW,206,10.0,11.0,55,0.00,,---,0.00,VWS V14.01,2013-02-11 16:18:00,
2013-02-11 10:23:00,50.1,34.1,30.10,SSW,213,8.0,12.0,54,0.00,,---,0.00,VWS V14.01,2013-02-11 16:23:00,
2013-02-11 10:28:00,50.1,34.1,30.09,South,178,6.0,7.0,54,0.00,,---,0.00,VWS V14.01,2013-02-11 16:28:00,
2013-02-11 10:33:00,50.3,34.8,30.09,SSW,196,5.0,7.0,55,0.00,,---,0.00,VWS V14.01,2013-02-11 16:33:00,
2013-02-11 10:38:00,50.6,34.6,30.08,SW,234,3.0,6.0,54,0.00,,---,0.00,VWS V14.01,2013-02-11 16:38:00,
2013-02-11 10:43:00,51.0,35.4,30.08,WSW,258,9.0,13.0,55,0.00,,---,0.00,VWS V14.01,2013-02-11 16:43:00,
2013-02-11 10:48:00,50.7,30.7,30.09,SW,216,14.0,15.0,46,0.00,,---,0.00,VWS V14.01,2013-02-11 16:48:00,
2013-02-11 10:53:00,50.5,31.0,30.09,WSW,257,6.0,7.0,47,0.00,,---,0.00,VWS V14.01,2013-02-11 16:53:00,
2013-02-11 10:58:00,50.5,33.1,30.10,South,190,7.0,7.0,51,0.00,,---,0.00,VWS V14.01,2013-02-11 16:58:00,
2013-02-11 11:03:00,50.5,31.0,30.10,SSW,204,6.0,8.0,47,0.00,,---,0.00,VWS V14.01,2013-02-11 17:03:00,
2013-02-11 11:08:00,50.6,32.2,30.11,SW,226,5.0,5.0,49,0.00,,---,0.00,VWS V14.01,2013-02-11 17:08:00,
2013-02-11 11:13:00,50.7,32.2,30.11,SW,234,4.0,6.0,49,0.00,,---,0.00,VWS V14.01,2013-02-11 17:13:00,
2013-02-11 11:18:00,50.6,30.1,30.11,SSW,205,3.0,11.0,45,0.00,,---,0.00,VWS V14.01,2013-02-11 17:18:00,
2013-02-11 11:23:00,50.6,33.2,30.11,SSW,203,4.0,8.0,51,0.00,,---,0.00,VWS V14.01,2013-02-11 17:23:00,
2013-02-11 11:28:00,50.5,32.6,30.11,SSW,202,5.0,6.0,50,0.00,,---,0.00,VWS V14.01,2013-02-11 17:28:00,
2013-02-11 11:33:00,50.3,31.4,30.11,SSW,207,11.0,11.0,48,0.00,,---,0.00,VWS V14.01,2013-02-11 17:33:00,
2013-02-11 11:38:00,50.0,31.1,30.11,SSW,208,9.0,13.0,48,0.00,,---,0.00,VWS V14.01,2013-02-11 17:38:00,
2013-02-11 11:43:00,50.0,31.1,30.11,SSW,203,5.0,8.0,48,0.00,,---,0.00,VWS V14.01,2013-02-11 17:43:00,
2013-02-11 11:48:00,50.0,30.0,30.11,South,190,7.0,9.0,46,0.00,,---,0.00,VWS V14.01,2013-02-11 17:48:00,
2013-02-11 11:53:00,50.1,30.7,30.10,SSW,210,4.0,7.0,47,0.00,,---,0.00,VWS V14.01,2013-02-11 17:53:00,
2013-02-11 11:58:00,50.1,30.7,30.11,SSW,210,3.0,4.0,47,0.00,,---,0.00,VWS V14.01,2013-02-11 17:58:00,
2013-02-11 12:03:00,50.2,31.8,30.10,South,176,4.0,5.0,49,0.00,,---,0.00,VWS V14.01,2013-02-11 18:03:00,
2013-02-11 12:08:00,50.4,31.5,30.10,SSE,153,7.0,8.0,48,0.00,,---,0.00,VWS V14.01,2013-02-11 18:08:00,
2013-02-11 12:13:00,50.4,29.3,30.09,South,189,7.0,11.0,44,0.00,,---,0.00,VWS V14.01,2013-02-11 18:13:00,
2013-02-11 12:18:00,50.3,30.3,30.09,South,190,3.0,5.0,46,0.00,,---,0.00,VWS V14.01,2013-02-11 18:18:00,
2013-02-11 12:23:00,50.4,28.8,30.09,SSW,199,4.0,9.0,43,0.00,,---,0.00,VWS V14.01,2013-02-11 18:23:00,
2013-02-11 12:28:00,50.4,29.3,30.09,South,178,7.0,8.0,44,0.00,,---,0.00,VWS V14.01,2013-02-11 18:28:00,
2013-02-11 12:33:00,50.7,31.2,30.09,SSE,160,1.0,3.0,47,0.00,,---,0.00,VWS V14.01,2013-02-11 18:33:00,
2013-02-11 12:38:00,51.0,29.9,30.09,SE,141,5.0,7.0,44,0.00,,---,0.00,VWS V14.01,2013-02-11 18:38:00,
2013-02-11 12:43:00,51.2,27.7,30.09,SSE,167,7.0,11.0,40,0.00,,---,0.00,VWS V14.01,2013-02-11 18:43:00,
2013-02-11 12:48:00,51.2,28.9,30.10,SSW,202,11.0,11.0,42,0.00,,---,0.00,VWS V14.01,2013-02-11 18:48:00,
2013-02-11 12:53:00,51.2,29.5,30.10,SSW,204,9.0,12.0,43,0.00,,---,0.00,VWS V14.01,2013-02-11 18:53:00,
2013-02-11 12:58:00,51.2,28.3,30.10,SSW,203,7.0,7.0,41,0.00,,---,0.00,VWS V14.01,2013-02-11 18:58:00,
2013-02-11 13:03:00,51.1,28.2,30.10,SSW,209,4.0,5.0,41,0.00,,---,0.00,VWS V14.01,2013-02-11 19:03:00,
2013-02-11 13:08:00,51.2,29.5,30.10,WSW,237,2.0,4.0,43,0.00,,---,0.00,VWS V14.01,2013-02-11 19:08:00,
2013-02-11 13:13:00,51.3,29.0,30.10,WSW,252,6.0,9.0,42,0.00,,---,0.00,VWS V14.01,2013-02-11 19:13:00,
2013-02-11 13:18:00,51.2,29.5,30.10,SSW,202,4.0,8.0,43,0.00,,---,0.00,VWS V14.01,2013-02-11 19:18:00,
2013-02-11 13:23:00,51.3,30.7,30.10,SW,220,3.0,5.0,45,0.00,,---,0.00,VWS V14.01,2013-02-11 19:23:00,
2013-02-11 13:28:00,51.4,29.1,30.09,WSW,238,3.0,4.0,42,0.00,,---,0.00,VWS V14.01,2013-02-11 19:28:00,
2013-02-11 13:33:00,51.3,28.4,30.09,SSW,207,9.0,10.0,41,0.00,,---,0.00,VWS V14.01,2013-02-11 19:33:00,
2013-02-11 13:38:00,51.3,27.8,30.09,South,188,6.0,8.0,40,0.00,,---,0.00,VWS V14.01,2013-02-11 19:38:00,
2013-02-11 13:43:00,51.6,28.7,30.09,SW,226,3.0,6.0,41,0.00,,---,0.00,VWS V14.01,2013-02-11 19:43:00,
2013-02-11 13:48:00,51.9,29.5,30.09,NW,321,3.0,7.0,42,0.00,,---,0.00,VWS V14.01,2013-02-11 19:48:00,
2013-02-11 13:53:00,52.0,28.5,30.08,West,276,2.0,8.0,40,0.00,,---,0.00,VWS V14.01,2013-02-11 19:53:00,
2013-02-11 13:58:00,52.1,27.9,30.08,West,259,4.0,7.0,39,0.00,,---,0.00,VWS V14.01,2013-02-11 19:58:00,
2013-02-11 14:03:00,52.1,29.1,30.09,SW,228,4.0,6.0,41,0.00,,---,0.00,VWS V14.01,2013-02-11 20:03:00,
2013-02-11 14:08:00,52.1,28.5,30.09,SSW,209,5.0,6.0,40,0.00,,---,0.00,VWS V14.01,2013-02-11 20:08:00,
2013-02-11 14:13:00,52.3,29.3,30.09,South,176,6.0,6.0,41,0.00,,---,0.00,VWS V14.01,2013-02-11 20:13:00,
2013-02-11 14:18:00,52.3,28.7,30.09,South,190,4.0,6.0,40,0.00,,---,0.00,VWS V14.01,2013-02-11 20:18:00,
2013-02-11 14:23:00,52.4,28.8,30.09,SW,219,5.0,8.0,40,0.00,,---,0.00,VWS V14.01,2013-02-11 20:23:00,
2013-02-11 14:28:00,52.9,29.2,30.09,SSW,196,8.0,11.0,40,0.00,,---,0.00,VWS V14.01,2013-02-11 20:28:00,
2013-02-11 14:33:00,52.7,27.8,30.09,South,178,7.0,12.0,38,0.00,,---,0.00,VWS V14.01,2013-02-11 20:33:00,
2013-02-11 14:38:00,52.7,30.3,30.09,SSW,213,5.0,7.0,42,0.00,,---,0.00,VWS V14.01,2013-02-11 20:38:00,
2013-02-11 14:43:00,53.2,31.3,30.08,South,175,2.0,3.0,43,0.00,,---,0.00,VWS V14.01,2013-02-11 20:43:00,
2013-02-11 14:48:00,53.3,29.0,30.08,SSW,196,9.0,9.0,39,0.00,,---,0.00,VWS V14.01,2013-02-11 20:48:00,
2013-02-11 14:53:00,53.4,27.8,30.08,South,181,8.0,8.0,37,0.00,,---,0.00,VWS V14.01,2013-02-11 20:53:00,
2013-02-11 14:58:00,53.2,27.6,30.08,WSW,237,3.0,6.0,37,0.00,,---,0.00,VWS V14.01,2013-02-11 20:58:00,
2013-02-11 15:03:00,53.2,30.1,30.08,SSW,202,3.0,4.0,41,0.00,,---,0.00,VWS V14.01,2013-02-11 21:03:00,
2013-02-11 15:08:00,53.0,29.3,30.08,SSW,197,3.0,4.0,40,0.00,,---,0.00,VWS V14.01,2013-02-11 21:08:00,
2013-02-11 15:13:00,53.0,29.3,30.08,SSE,154,2.0,3.0,40,0.00,,---,0.00,VWS V14.01,2013-02-11 21:13:00,
2013-02-11 15:18:00,53.4,29.7,30.09,SSW,208,6.0,9.0,40,0.00,,---,0.00,VWS V14.01,2013-02-11 21:18:00,
2013-02-11 15:23:00,53.5,29.2,30.08,SW,228,7.0,7.0,39,0.00,,---,0.00,VWS V14.01,2013-02-11 21:23:00,
2013-02-11 15:28:00,53.3,27.0,30.08,SSW,212,6.0,9.0,36,0.00,,---,0.00,VWS V14.01,2013-02-11 21:28:00,
2013-02-11 15:33:00,52.8,26.6,30.08,SSW,208,4.0,6.0,36,0.00,,---,0.00,VWS V14.01,2013-02-11 21:33:00,
2013-02-11 15:38:00,53.1,27.5,30.07,SW,221,3.0,4.0,37,0.00,,---,0.00,VWS V14.01,2013-02-11 21:38:00,
2013-02-11 15:43:00,53.5,27.9,30.07,SW,235,2.0,6.0,37,0.00,,---,0.00,VWS V14.01,2013-02-11 21:43:00,
2013-02-11 15:48:00,54.0,29.0,30.07,SW,233,6.0,6.0,38,0.00,,---,0.00,VWS V14.01,2013-02-11 21:48:00,
2013-02-11 15:53:00,53.7,28.1,30.08,SSW,212,5.0,7.0,37,0.00,,---,0.00,VWS V14.01,2013-02-11 21:53:00,
2013-02-11 15:58:00,53.7,28.1,30.07,SSW,209,4.0,4.0,37,0.00,,---,0.00,VWS V14.01,2013-02-11 21:58:00,
2013-02-11 16:03:00,53.7,28.7,30.07,SSW,205,5.0,6.0,38,0.00,,---,0.00,VWS V14.01,2013-02-11 22:03:00,
2013-02-11 16:08:00,53.5,27.9,30.07,SSW,197,1.0,3.0,37,0.00,,---,0.00,VWS V14.01,2013-02-11 22:08:00,
2013-02-11 16:13:00,53.7,28.7,30.07,SSW,196,5.0,6.0,38,0.00,,---,0.00,VWS V14.01,2013-02-11 22:13:00,
2013-02-11 16:18:00,53.6,28.0,30.07,WSW,238,3.0,4.0,37,0.00,,---,0.00,VWS V14.01,2013-02-11 22:18:00,
2013-02-11 16:23:00,53.4,27.8,30.07,West,266,3.0,4.0,37,0.00,,---,0.00,VWS V14.01,2013-02-11 22:23:00,
2013-02-11 16:28:00,53.4,27.8,30.08,WSW,240,3.0,3.0,37,0.00,,---,0.00,VWS V14.01,2013-02-11 22:28:00,
2013-02-11 16:33:00,53.3,27.7,30.08,SSW,210,2.0,4.0,37,0.00,,---,0.00,VWS V14.01,2013-02-11 22:33:00,
2013-02-11 16:38:00,53.5,28.5,30.09,WSW,247,4.0,4.0,38,0.00,,---,0.00,VWS V14.01,2013-02-11 22:38:00,
2013-02-11 16:43:00,53.2,28.3,30.08,South,186,5.0,5.0,38,0.00,,---,0.00,VWS V14.01,2013-02-11 22:43:00,
2013-02-11 16:48:00,53.0,28.7,30.08,SSW,200,1.0,1.0,39,0.00,,---,0.00,VWS V14.01,2013-02-11 22:48:00,
2013-02-11 16:53:00,52.7,29.1,30.09,SSE,158,2.0,2.0,40,0.00,,---,0.00,VWS V14.01,2013-02-11 22:53:00,
2013-02-11 16:58:00,52.1,28.5,30.08,South,175,2.0,4.0,40,0.00,,---,0.00,VWS V14.01,2013-02-11 22:58:00,
2013-02-11 17:03:00,51.4,28.5,30.08,SE,140,1.0,1.0,41,0.00,,---,0.00,VWS V14.01,2013-02-11 23:03:00,
2013-02-11 17:08:00,50.8,28.0,30.08,SW,234,2.0,3.0,41,0.00,,---,0.00,VWS V14.01,2013-02-11 23:08:00,
2013-02-11 17:13:00,50.1,28.5,30.08,SSE,166,2.0,2.0,43,0.00,,---,0.00,VWS V14.01,2013-02-11 23:13:00,
2013-02-11 17:18:00,49.7,28.1,30.08,SSE,151,1.0,2.0,43,0.00,,---,0.00,VWS V14.01,2013-02-11 23:18:00,
2013-02-11 17:23:00,49.5,28.0,30.09,SSE,166,1.0,2.0,43,0.00,,---,0.00,VWS V14.01,2013-02-11 23:23:00,
2013-02-11 17:28:00,49.1,28.1,30.08,SE,141,1.0,1.0,44,0.00,,---,0.00,VWS V14.01,2013-02-11 23:28:00,
2013-02-11 17:33:00,48.6,28.8,30.09,SE,141,0.0,0.0,46,0.00,,---,0.00,VWS V14.01,2013-02-11 23:33:00,
2013-02-11 17:38:00,47.7,29.0,30.09,SE,141,0.0,0.0,48,0.00,,---,0.00,VWS V14.01,2013-02-11 23:38:00,
2013-02-11 17:43:00,46.7,29.1,30.08,SE,141,0.0,0.0,50,0.00,,---,0.00,VWS V14.01,2013-02-11 23:43:00,
2013-02-11 17:48:00,45.5,28.9,30.09,SE,141,0.0,0.0,52,0.00,,---,0.00,VWS V14.01,2013-02-11 23:48:00,
2013-02-11 17:53:00,45.1,29.5,30.10,SE,141,0.0,0.0,54,0.00,,---,0.00,VWS V14.01,2013-02-11 23:53:00,
2013-02-11 17:58:00,44.3,29.6,30.10,SE,141,0.0,0.0,56,0.00,,---,0.00,VWS V14.01,2013-02-11 23:58:00,
2013-02-11 18:03:00,43.6,30.2,30.10,SE,141,0.0,0.0,59,0.00,,---,0.00,VWS V14.01,2013-02-12 00:03:00,
2013-02-11 18:08:00,43.2,29.4,30.09,SE,141,0.0,0.0,58,0.00,,---,0.00,VWS V14.01,2013-02-12 00:08:00,
2013-02-11 18:13:00,42.5,29.6,30.09,SE,141,0.0,0.0,60,0.00,,---,0.00,VWS V14.01,2013-02-12 00:13:00,
2013-02-11 18:17:00,41.8,29.8,30.09,SE,141,0.0,0.0,62,0.00,,---,0.00,VWS V14.01,2013-02-12 00:17:00,
2013-02-11 18:22:00,41.3,30.1,30.09,SE,141,0.0,0.0,64,0.00,,---,0.00,VWS V14.01,2013-02-12 00:22:00,
2013-02-11 18:27:00,40.7,30.2,30.09,SE,141,0.0,0.0,66,0.00,,---,0.00,VWS V14.01,2013-02-12 00:27:00,
2013-02-11 18:32:00,40.1,29.7,30.10,SE,141,0.0,0.0,66,0.00,,---,0.00,VWS V14.01,2013-02-12 00:32:00,
2013-02-11 18:37:00,39.0,31.8,30.10,SE,141,0.0,0.0,75,0.00,,---,0.00,VWS V14.01,2013-02-12 00:37:00,
2013-02-11 18:42:00,38.3,31.4,30.09,SE,141,0.0,0.0,76,0.00,,---,0.00,VWS V14.01,2013-02-12 00:42:00,
2013-02-11 18:47:00,37.7,31.1,30.10,SE,131,0.0,0.0,77,0.00,,---,0.00,VWS V14.01,2013-02-12 00:47:00,
2013-02-11 18:52:00,37.7,31.8,30.10,SE,131,0.0,0.0,79,0.00,,---,0.00,VWS V14.01,2013-02-12 00:52:00,
2013-02-11 18:57:00,37.6,31.4,30.10,SE,132,0.0,0.0,78,0.00,,---,0.00,VWS V14.01,2013-02-12 00:57:00,
2013-02-11 19:02:00,37.4,31.2,30.10,SE,131,0.0,0.0,78,0.00,,---,0.00,VWS V14.01,2013-02-12 01:02:00,
2013-02-11 19:07:00,36.9,30.7,30.10,SE,132,0.0,0.0,78,0.00,,---,0.00,VWS V14.01,2013-02-12 01:07:00,
2013-02-11 19:12:00,36.1,30.2,30.10,SE,131,0.0,0.0,79,0.00,,---,0.00,VWS V14.01,2013-02-12 01:12:00,
2013-02-11 19:17:00,35.6,30.7,30.10,SE,132,0.0,0.0,82,0.00,,---,0.00,VWS V14.01,2013-02-12 01:17:00,
2013-02-11 19:22:00,35.6,31.0,30.10,SE,131,0.0,0.0,83,0.00,,---,0.00,VWS V14.01,2013-02-12 01:22:00,
2013-02-11 19:27:00,35.4,31.1,30.10,SE,131,0.0,0.0,84,0.00,,---,0.00,VWS V14.01,2013-02-12 01:27:00,
2013-02-11 19:32:00,35.2,30.9,30.09,SE,131,0.0,0.0,84,0.00,,---,0.00,VWS V14.01,2013-02-12 01:32:00,
2013-02-11 19:37:00,35.2,30.9,30.09,SE,131,0.0,0.0,84,0.00,,---,0.00,VWS V14.01,2013-02-12 01:37:00,
2013-02-11 19:42:00,35.0,30.7,30.10,SE,131,0.0,0.0,84,0.00,,---,0.00,VWS V14.01,2013-02-12 01:42:00,
2013-02-11 19:47:00,35.2,30.6,30.10,ESE,117,2.0,2.0,83,0.00,,---,0.00,VWS V14.01,2013-02-12 01:47:00,
2013-02-11 19:52:00,36.0,30.8,30.11,ESE,117,0.0,0.0,81,0.00,,---,0.00,VWS V14.01,2013-02-12 01:52:00,
2013-02-11 19:57:00,35.9,30.6,30.11,ESE,117,0.0,0.0,81,0.00,,---,0.00,VWS V14.01,2013-02-12 01:57:00,
2013-02-11 20:02:00,35.2,30.3,30.11,ESE,118,0.0,0.0,82,0.00,,---,0.00,VWS V14.01,2013-02-12 02:02:00,
2013-02-11 20:07:00,34.4,30.1,30.12,ESE,117,0.0,0.0,84,0.00,,---,0.00,VWS V14.01,2013-02-12 02:07:00,
2013-02-11 20:12:00,34.0,30.0,30.11,ESE,117,0.0,0.0,85,0.00,,---,0.00,VWS V14.01,2013-02-12 02:12:00,
2013-02-11 20:17:00,33.8,29.8,30.12,ESE,117,0.0,0.0,85,0.00,,---,0.00,VWS V14.01,2013-02-12 02:17:00,
2013-02-11 20:22:00,33.6,29.9,30.11,ESE,117,0.0,0.0,86,0.00,,---,0.00,VWS V14.01,2013-02-12 02:22:00,
2013-02-11 20:27:00,33.5,30.0,30.12,ESE,118,0.0,1.0,87,0.00,,---,0.00,VWS V14.01,2013-02-12 02:27:00,
2013-02-11 20:32:00,33.7,30.5,30.12,ESE,117,0.0,0.0,88,0.00,,---,0.00,VWS V14.01,2013-02-12 02:32:00,
2013-02-11 20:37:00,33.9,30.7,30.11,ESE,117,0.0,1.0,88,0.00,,---,0.00,VWS V14.01,2013-02-12 02:37:00,
2013-02-11 20:42:00,34.1,30.6,30.12,ESE,117,0.0,0.0,87,0.00,,---,0.00,VWS V14.01,2013-02-12 02:42:00,
2013-02-11 20:47:00,34.1,30.4,30.12,ESE,117,0.0,0.0,86,0.00,,---,0.00,VWS V14.01,2013-02-12 02:47:00,
2013-02-11 20:52:00,34.1,30.4,30.11,ESE,117,0.0,0.0,86,0.00,,---,0.00,VWS V14.01,2013-02-12 02:52:00,
2013-02-11 20:57:00,33.9,30.2,30.12,ESE,117,0.0,0.0,86,0.00,,---,0.00,VWS V14.01,2013-02-12 02:57:00,
2013-02-11 21:02:00,33.9,30.2,30.11,ESE,117,0.0,0.0,86,0.00,,---,0.00,VWS V14.01,2013-02-12 03:02:00,
2013-02-11 21:07:00,33.9,30.5,30.12,ESE,117,0.0,0.0,87,0.00,,---,0.00,VWS V14.01,2013-02-12 03:07:00,
2013-02-11 21:12:00,33.9,30.5,30.13,ESE,117,0.0,0.0,87,0.00,,---,0.00,VWS V14.01,2013-02-12 03:12:00,
2013-02-11 21:17:00,34.0,30.5,30.13,ESE,117,0.0,0.0,87,0.00,,---,0.00,VWS V14.01,2013-02-12 03:17:00,
2013-02-11 21:22:00,33.9,30.5,30.13,ESE,117,0.0,0.0,87,0.00,,---,0.00,VWS V14.01,2013-02-12 03:22:00,
2013-02-11 21:27:00,33.8,30.9,30.14,ESE,117,0.0,0.0,89,0.00,,---,0.00,VWS V14.01,2013-02-12 03:27:00,
2013-02-11 21:32:00,33.7,30.8,30.15,ESE,117,0.0,0.0,89,0.00,,---,0.00,VWS V14.01,2013-02-12 03:32:00,
2013-02-11 21:37:00,33.7,30.8,30.15,ESE,118,0.0,0.0,89,0.00,,---,0.00,VWS V14.01,2013-02-12 03:37:00,
2013-02-11 21:42:00,33.5,30.9,30.14,ESE,117,0.0,0.0,90,0.00,,---,0.00,VWS V14.01,2013-02-12 03:42:00,
2013-02-11 21:47:00,33.3,30.7,30.14,ESE,117,0.0,0.0,90,0.00,,---,0.00,VWS V14.01,2013-02-12 03:47:00,
2013-02-11 21:52:00,33.1,30.5,30.14,ESE,117,0.0,0.0,90,0.00,,---,0.00,VWS V14.01,2013-02-12 03:52:00,
2013-02-11 21:57:00,33.2,30.9,30.14,ESE,118,0.0,0.0,91,0.00,,---,0.00,VWS V14.01,2013-02-12 03:57:00,
2013-02-11 22:02:00,33.3,30.7,30.14,ESE,117,0.0,0.0,90,0.00,,---,0.00,VWS V14.01,2013-02-12 04:02:00,
2013-02-11 22:07:00,33.3,30.7,30.14,ESE,115,0.0,0.0,90,0.00,,---,0.00,VWS V14.01,2013-02-12 04:07:00,
2013-02-11 22:12:00,33.3,31.0,30.14,ESE,107,0.0,1.0,91,0.00,,---,0.00,VWS V14.01,2013-02-12 04:12:00,
2013-02-11 22:17:00,33.3,31.0,30.14,ESE,107,0.0,0.0,91,0.00,,---,0.00,VWS V14.01,2013-02-12 04:17:00,
2013-02-11 22:22:00,33.3,31.0,30.14,ESE,107,0.0,0.0,91,0.00,,---,0.00,VWS V14.01,2013-02-12 04:22:00,
2013-02-11 22:27:00,33.5,30.9,30.14,ESE,107,0.0,0.0,90,0.00,,---,0.00,VWS V14.01,2013-02-12 04:27:00,
2013-02-11 22:32:00,33.3,30.7,30.14,ESE,107,0.0,0.0,90,0.00,,---,0.00,VWS V14.01,2013-02-12 04:32:00,
2013-02-11 22:37:00,33.1,30.5,30.14,ESE,106,0.0,0.0,90,0.00,,---,0.00,VWS V14.01,2013-02-12 04:37:00,
2013-02-11 22:42:00,33.0,30.4,30.14,ESE,106,0.0,0.0,90,0.00,,---,0.00,VWS V14.01,2013-02-12 04:42:00,
2013-02-11 22:47:00,32.8,30.5,30.14,ESE,106,0.0,0.0,91,0.00,,---,0.00,VWS V14.01,2013-02-12 04:47:00,
2013-02-11 22:52:00,32.8,30.5,30.14,ESE,107,0.0,0.0,91,0.00,,---,0.00,VWS V14.01,2013-02-12 04:52:00,
2013-02-11 22:57:00,32.7,30.4,30.14,ESE,107,0.0,0.0,91,0.00,,---,0.00,VWS V14.01,2013-02-12 04:57:00,
2013-02-11 23:00:00,32.8,30.5,30.14,ESE,107,0.0,0.0,91,0.00,,---,0.00,VWS V14.01,2013-02-12 05:00:00,
2013-02-11 23:05:00,33.0,30.7,30.14,ESE,107,0.0,0.0,91,0.00,,---,0.00,VWS V14.01,2013-02-12 05:05:00,
2013-02-11 23:10:00,32.9,30.3,30.15,ESE,107,0.0,0.0,90,0.00,,---,0.00,VWS V14.01,2013-02-12 05:10:00,
2013-02-11 23:15:00,32.6,30.0,30.15,ESE,106,0.0,0.0,90,0.00,,---,0.00,VWS V14.01,2013-02-12 05:15:00,
2013-02-11 23:20:00,32.5,30.2,30.15,ESE,107,0.0,0.0,91,0.00,,---,0.00,VWS V14.01,2013-02-12 05:20:00,
2013-02-11 23:25:00,32.4,30.1,30.14,ESE,107,0.0,0.0,91,0.00,,---,0.00,VWS V14.01,2013-02-12 05:25:00,
2013-02-11 23:30:00,32.4,30.3,30.14,ESE,106,0.0,0.0,92,0.00,,---,0.00,VWS V14.01,2013-02-12 05:30:00,
2013-02-11 23:35:00,32.4,30.3,30.14,ESE,106,0.0,0.0,92,0.00,,---,0.00,VWS V14.01,2013-02-12 05:35:00,
2013-02-11 23:40:00,32.5,30.4,30.14,ESE,107,0.0,0.0,92,0.00,,---,0.00,VWS V14.01,2013-02-12 05:40:00,
2013-02-11 23:45:00,32.5,30.4,30.14,ESE,106,0.0,0.0,92,0.00,,---,0.00,VWS V14.01,2013-02-12 05:45:00,
2013-02-11 23:50:00,32.4,30.3,30.14,ESE,106,0.0,0.0,92,0.00,,---,0.00,VWS V14.01,2013-02-12 05:50:00,
2013-02-11 23:55:00,32.4,30.3,30.14,ESE,107,0.0,0.0,92,0.00,,---,0.00,VWS V14.01,2013-02-12 05:55:00,